Location: Unspecified
(42.9092°N, 0.0000°E)
Time: 02:18:54
(UTC+00:00)

NOAA 14 DEB - Visible Passes

Search period start: 04 April 2026 00:00
Search period end: 14 April 2026 00:00
Orbit: 770 x 784 km, 98.6° (Epoch: 29 March)

Date Brightness Start Highest point End Pass type
(mag) Time Alt. Az. Time Alt. Az. Time Alt. Az.
4 Apr ? 22:40:29 21° N 22:40:29 21° N 22:42:17 10° N visible
5 Apr ? 22:06:36 17° NNE 22:06:36 17° NNE 22:08:18 10° NNE visible
5 Apr ? 23:47:02 17° NNW 23:47:02 17° NNW 23:48:11 10° NNW visible
6 Apr ? 21:32:41 11° NE 21:32:41 11° NE 21:33:21 10° NE visible
6 Apr ? 23:13:07 22° NNW 23:13:07 22° NNW 23:14:56 10° NNW visible
7 Apr ? 22:39:13 23° NNE 22:39:13 23° NNE 22:41:19 10° N visible
8 Apr ? 00:19:39 11° NW 00:19:39 11° NW 00:19:59 10° NW visible
8 Apr ? 22:05:18 18° NNE 22:05:18 18° NNE 22:07:16 10° NNE visible
8 Apr ? 23:45:44 19° NNW 23:45:44 19° NNW 23:47:12 10° NNW visible
9 Apr ? 21:31:22 11° NE 21:31:22 11° NE 21:32:14 10° NE visible
9 Apr ? 23:11:48 25° N 23:11:48 25° N 23:13:55 10° NNW visible
10 Apr ? 22:37:52 25° NNE 22:37:52 25° NNE 22:40:16 10° N visible
11 Apr ? 00:18:18 13° NW 00:18:18 13° NW 00:19:00 10° NW visible
11 Apr ? 22:03:56 19° NE 22:03:56 19° NE 22:06:11 10° NNE visible
11 Apr ? 23:44:22 21° NNW 23:44:22 21° NNW 23:46:10 10° NNW visible
12 Apr ? 21:29:59 11° NE 21:29:59 11° NE 21:31:02 10° NE visible
12 Apr ? 23:10:25 28° N 23:10:25 28° N 23:12:50 10° NNW visible
13 Apr ? 22:36:28 27° NNE 22:36:28 27° NNE 22:39:09 10° N visible
